Regional Weather Roundup
Issued by NWS

Home | Current Version | Previous Version | Text Only | Print | Product List | Glossary Off
Versions: 1 2 3 4 5 6 7 8 9 10 11 12 13 14 15 16 17 18 19 20 21 22 23 24 25 26 27 28 29 30 31 32 33 34 35 36 37 38 39 40 41 42 43 44 45 46 47 48 49 50

000
ASUS43 KMKX 071000
RWRWI

WISCONSIN REGIONAL WEATHER ROUNDUP
NATIONAL WEATHER SERVICE MILWAUKEE/SULLIVAN WI
400 AM CST SUN FEB 07 2016

NOTE: "FAIR" INDICATES FEW OR NO CLOUDS BELOW 12,000 FEET WITH NO
SIGNIFICANT WEATHER AND/OR OBSTRUCTIONS TO VISIBILITY.

WIZ001-002-006>008-014>016-023>028-071100-
NORTHWEST WISCONSIN

CITY           SKY/WX    TMP DP  RH WIND       PRES   REMARKS
SUPERIOR ARPT  PTCLDY    32  29  88 W7        29.54F WCI  26
ASHLAND        PTCLDY    32  28  85 S12       29.56F WCI  23
HAYWARD        CLOUDY    31  26  82 S14       29.59F WCI  21
SIREN          CLOUDY    33  30  90 S12       29.56F WCI  24
CUMBERLAND     MIX PCPN  32  28  86 S8        29.61F WCI  25
RICE LAKE      FLURRIES  31  28  86 S7        29.65F WCI  25
CHETEK         CLOUDY    32  28  85 S6        29.64F WCI  26
LADYSMITH      CLOUDY    31  28  90 S6        29.67F WCI  25
EAU CLAIRE     CLOUDY    33  27  78 S7        29.66F WCI  27
MENOMONIE      CLOUDY    34  28  80 S6        29.67F WCI  29
NEW RICHMOND   CLOUDY    31  27  83 S12       29.64F WCI  22
OSCEOLA        CLOUDY    32  28  86 S9        29.66S WCI  24
$$

WIZ003>005-009-010-017-018-071100-
NORTH CENTRAL WISCONSIN

CITY           SKY/WX    TMP DP  RH WIND       PRES   REMARKS
MANITOWISH WTR CLOUDY    28  27  96 SW13G18   29.62S WCI  17
ARBOR VITAE    CLOUDY    32  29  90 SW10      29.64R WCI  23
WOODRUFF       CLOUDY    32  29  90 SW10      29.64R WCI  23
RHINELANDER    CLOUDY    29  25  85 SW13      29.66S WCI  19
EAGLE RIVER    CLOUDY    28  25  86 SW9       29.63F WCI  20
LAND O LAKES   CLOUDY    29  26  91 SW10      29.62F WCI  19
PHILLIPS       CLOUDY    29  27  91 S12G18    29.63F WCI  20
TOMAHAWK       CLOUDY    28  26  91 CALM      29.68R
MEDFORD        CLOUDY    30  28  94 S10       29.67F WCI  21
MERRILL        CLOUDY    30  28  91 SW8       29.70R WCI  23
$$

WIZ029-030-035-036-043>047-071100-
CENTRAL WISCONSIN

CITY           SKY/WX    TMP DP  RH WIND       PRES   REMARKS
WAUSAU         CLOUDY    32  28  85 S7        29.68F WCI  26
MOSINEE        CLOUDY    30  30 100 S8        29.71S WCI  23
MARSHFIELD     CLOUDY    32  26  78 S10       29.67F WCI  24
STEVENS POINT  CLOUDY    30  27  88 S10       29.71F WCI  21
WAUPACA        CLOUDY    35  30  82 S7        29.75F WCI  29
WAUTOMA        NOT AVBL
WISC RAPIDS    CLOUDY    33  27  78 SW8       29.73F WCI  26
CAMP DOUGLAS   NOT AVBL
$$

WIZ011>013-019>022-031-037>040-048>050-071100-
NORTHEAST WISCONSIN

CITY           SKY/WX    TMP DP  RH WIND       PRES   REMARKS
ANTIGO         CLOUDY    28  27  96 S16       29.66F WCI  16
SHAWANO        CLOUDY    33  28  83 SW3       29.74F
OCONTO         CLOUDY    31  29  93 S7        29.75F WCI  24
STURGEON BAY   MOCLDY    32  27  80 S12       29.77F WCI  23
GREEN BAY      CLOUDY    36  30  79 S13       29.74F WCI  27
MANITOWOC      NOT AVBL
APPLETON       CLOUDY    34  28  80 S16       29.73F WCI  23
CLINTONVILLE   CLOUDY    32  28  86 S9        29.74F WCI  24
OSHKOSH        CLOUDY    35  29  78 S18       29.74F WCI  24
$$

WIZ032>034-041-042-053>061-071100-
SOUTHWEST WISCONSIN

CITY           SKY/WX    TMP DP  RH WIND       PRES   REMARKS
LA CROSSE      CLOUDY    36  29  75 S7        29.73F WCI  30
SPARTA         CLOUDY    36  30  80 SW7G17    29.73F WCI  30
VIROQUA        CLOUDY    34  30  85 SW15      29.71F WCI  24
BOSCOBEL       CLOUDY    38  31  76 SW13G20   29.77F WCI  30
PRAIRIE DU CHI CLOUDY    38  28  68 S3        29.78S
PLATTEVILLE    CLOUDY    36  32  83 S16       29.80F WCI  27
$$

WIZ056-057-062-063-064-067-068-071100-
SOUTH CENTRAL WISCONSIN

CITY           SKY/WX    TMP DP  RH WIND       PRES   REMARKS
REEDSBURG      CLOUDY    36  30  80 S13       29.74F WCI  27
BARABOO/DELLS  CLOUDY    35  29  79 S14       29.74F WCI  26
LONE ROCK      CLOUDY    38  29  70 SW7       29.78F WCI  33
MINERAL POINT  CLOUDY    36  32  87 S17G23    29.77F WCI  25
MADISON        CLOUDY    36  29  75 SW10G23   29.79F WCI  28
MIDDLETON      CLOUDY    38  30  73 SW13G20   29.79F WCI  30
WATERTOWN      CLOUDY    36  31  84 S10G16    29.81F WCI  28
MONROE         CLOUDY    34  32  93 S16       29.82F WCI  23
JANESVILLE     CLOUDY    37  32  81 S14       29.85F WCI  29
$$

WIZ051-052-058>065-066-070>072-071100-
SOUTHEAST WISCONSIN

CITY           SKY/WX    TMP DP  RH WIND       PRES   REMARKS
MILWAUKEE      CLOUDY    35  29  78 S8        29.85F WCI  29
WAUKESHA       MOCLDY    32  28  86 S6        29.85F WCI  26
MILWAUKEE/TIMM CLOUDY    34  28  80 S8        29.87F WCI  27
RACINE         CLOUDY    37  28  70 S13       29.88F WCI  29
BURLINGTON     CLOUDY    34  28  80 S12       29.87F WCI  25
KENOSHA        CLOUDY    37  29  72 SW12      29.88F WCI  29
FOND DU LAC    CLOUDY    37  29  72 S18G26    29.76F WCI  27
SHEBOYGAN      CLOUDY    33  28  81 S12       29.80F WCI  24
WEST BEND      MOCLDY    36  30  80 S10       29.82F WCI  28
JUNEAU         MOCLDY    35  30  81 S16G22    29.81F WCI  25
$$

LSZ147-162-071100-
LAKE SUPERIOR

STATION/POSITION TIME  TEMP    WIND        PRES    WAVE
                       AIR SEA DIR/SP/G            HT/PER
                 (UTC) (F)     (DEG/KT/KT) (MB)    (FT/S)
DEVILS ISLAND    0900   32     190/ 10/ 13 1001.9F
PORT WING        0900          190/ 10/ 12 1002.0F
SAXON HARBOR     0940   34                 1001.7F
$$

LMZ867-665-643>646-071100-
LAKE MICHIGAN

STATION/POSITION TIME  TEMP    WIND        PRES    WAVE
                       AIR SEA DIR/SP/G            HT/PER
                 (UTC) (F)     (DEG/KT/KT) (MB)    (FT/S)
CHAMBERS ISLAND  0900   29     170/  7/ 16 1009.1F
ALGOMA LAKESHORE 0911          230/ 14/ 17   N/A
KEWAUNEE LAKESHO 0900   33     200/ 10/ 13 1009.4F
SHEBOYGAN LAKESH 0900   34     190/ 17/ 18 1011.8F
PORT WASHINGTON  0900   34     200/  4/  7 1012.5
MILWAUKEE LAKESH 0910   36     210/  9/ 13   N/A
KENOSHA   LAKESH 0900   37     200/  8/ 11 1013.2F
$$

TC  - TEMPERATURE IN CELSIUS
VSB - VISIBILITY IN STATUTE MILES
WCI - WIND CHILL INDEX
HX  - HEAT INDEX




USA.gov is the U.S. government's official web portal to all federal, state and local government web resources and services.